SL-14 DEB, 45339

Orbit data source: Space-Track

SL-14 DEB, 45339 is space debris in LEO originally from a launch on Thu, 15 Aug 1991 UTC launched from the Plesetsk Missile And Space Complex (PKMTR). Debris objects in space refer to the collection of defunct objects orbiting the Earth. Examples of debris include non-operational satellites, rocket bodies, and fragments generated from explosions, collisions, or faulty payload assembly.

Loading next visibility...
Identifier
45339, 1991-056CD
Orbit
LEO
Country
Flag of CISCIS
Related business
Manufacturer
Unknown
Mission
Spacecraft
Bus & Motor
Unknown
Mass
Unknown
Launch date (UTC)
1991-08-15 (35 years ago)
Launch vehicle
Unknown
Launch site
Plesetsk Missile And Space Complex (PKMTR)
Object type
Payload
Rocket body
Debris
Shape & HBR
Unknown shape, 0.1 m
Radar Cross Section
Small (<0.1 m²)

Expand to show TLE details & history
Last TLE update: 6 hours ago

TLE from 6 hours ago
0 SL-14 DEB
1 45339U 91056CD  26126.52572445  .00009043  00000-0  89344-2 0  9992
2 45339  82.4985  49.3044 0080241 121.8589 239.0409 13.76975088305374
Epoch: 2026-05-06T12:37Z
TLE epoch observation values (Epoch: 2026-05-06T12:37:02.592Z)
Latitude
-0.00005°
Longitude
-4.34137°
Altitude
1,008.229 km
Speed
7.332 km/s
True Right ascension
03h 17m 13s
True Declination
0° 00' 00"
Sunlit
Object was in daylight at epoch
Visualization orbit readout
Latitude
Unknown
Longitude
Unknown
Altitude
Unknown
Speed
Unknown
Apparent Right ascension
Unknown
Apparent Declination
Unknown
Sunlit
N/A
Visualization observer readout
Local Sidereal Time
02:57:05
Azimuth
Unknown
Elevation
Unknown
Doppler factor
Unknown
Orbital elements
Apogee altitude
1,030.775 km
Perigee altitude
912.822 km
Semi-major axis
7,349.936 km
Eccentricity
0.00802
Inclination
82.4985°
RAAN
49.3044°
Arg. of periapsis
121.8589°
True anomaly
238.25647°
Mean anomaly
239.0409°
Eccentric anomaly
238.64828°
Mean motion
3.44443 °/min
Orbital period
104.52 mins
BSTAR
0.0089344
Loading maneuver chart data...
Computing Atmospheric mass density...
Loading historical data...
Loading historical data...
Loading historical data...
Loading historical data...
Loading historical data...
Loading historical data...
Loading historical data...

Documentation

Showing up to 5 results
|